Find Starlink 32902

NORAD ID: 62898 Int'l Des: 2025-024 Owner: SPXS Country: US Constellation: starlink operational
LEOCIRCULAR

Live Position

Loading 3D Globe...

About Starlink 32902

Description loading...

Upcoming Passes

Passes for default location (London). Set your location on the main map for personalized predictions.

Altitude History

Loading altitude history...

Two-Line Element Set

1 62898U 25024V 26127.88476030 .00018664 00000-0 68574-3 0 9998
2 62898 43.0056 350.6638 0002193 275.7764 84.2838 15.27594377 71323
Epoch: May 7, 2026 • Age: 5 hours

Current Status

Altitude 484.2 km
Velocity 7.62 km/s
Sub-Earth Point -10.89°S, 83.74°E
Launch Date Feb 4, 2025
Age 1.2 years
Type internet

Technical Details

Classification Payload
Mass 730.00 kg
Dry Mass 700.00 kg
Total Mass 730.00 kg
Length 0.30 m
Diameter 4.10 m
Span 29.00 m
Shape Box + pan
Manufacturer SPXS
Bus Type Starlink V2M
Phase Status In Orbit
Owner/State SPXS/US

Most Searched